Location: Bosmont
(49.7318°N, 3.8587°E)
Time: 18:21:14
(UTC+00:00)

COSMOS 2428 - Pass Details

Date: 08 February 2023
Orbit: 843 x 858 km, 70.9° (Epoch: 26 March)

Event Time Altitude Azimuth Distance (km) Brightness Sun altitude
Rises 17:25:45 0° 163° (SSE) 3,390 5.8 -6.1°
Reaches altitude 10° 17:28:45 10° 148° (SSE) 2,459 5.0 -6.6°
Maximum altitude 17:32:50 21° 101° (E) 1,814 3.9 -7.2°
Drops below altitude 10° 17:36:56 10° 54° (NE) 2,472 4.6 -7.9°
Enters shadow 17:38:18 - 46° (NE) 2,879 4.9 -8.1°
